User: anonymous   Login
Location: Jetmore Oil Field
(38.1181°N, 99.9337°W)
Time: 18:19:33
(UTC+00:00)
Language:

STARLINK-2751 - Orbit

View from above orbital plane
View from above orbital plane
View from above satellite
View from above satellite

Ground track
Ground track

The orbit data is extracted from the following two-line orbital elements,

1 48685C 21044AZ  21264.45874200 -.00021996  00000-0 -15599-3 0  2643
2 48685  53.0463 199.8691 0004220  10.7431  21.6880 15.73266696    18
Epoch (UTC): 21 September 2021 11:00:35
Eccentricity: 0.0004220
inclination: 53.0463°
perigee height: 347 km
apogee height: 352 km
right ascension of ascending node: 199.8691°
argument of perigee: 10.7431°
revolutions per day: 15.73266696
mean anomaly at epoch: 21.6880°
orbit number at epoch: 1

The dashed part of the orbit path shows where the satellite is in the earth's shadow,  

DLR